AirNav   Bose Proflight and A20 aviation headeets
 
 1068 users online  

6M6 Lewis County Regional Airport
Monticello, Missouri, USA

GOING TO MONTICELLO?


FAA INFORMATION EFFECTIVE 31 JANUARY 2019

Location

FAA Identifier: 6M6
Lat/Long: 40-07-45.0350N / 091-40-41.7700W
40-07.750583N / 091-40.696167W
40.1291764 / -91.6782694
(estimated)
Elevation: 675 ft. / 205.7 m (surveyed)
Variation: 01E (2000)
From city: 2 miles NE of MONTICELLO, MO
Time zone: UTC -6 (UTC -5 during Daylight Saving Time)
Zip code: 63457

Airport Operations

Airport use: Open to the public
Activation date: 07/1992
Control tower: no
ARTCC: KANSAS CITY CENTER
FSS: SAINT LOUIS FLIGHT SERVICE STATION
NOTAMs facility: STL (NOTAM-D service available)
Attendance: UNATNDD
Wind indicator: lighted
Segmented circle: yes
Lights: ACTVT MIRL RY 18/36 - CTAF.
Beacon: white-green (lighted land airport)
Operates sunset to sunrise.

Airport Communications

CTAF/UNICOM: 122.7
  • UNICOM UNMONITORED.
  • APCH/DEP SVC PRVDD BY KANSAS CITY ARTCC ON FREQS 126.225/317.775 (QUINCY RCAG).

Nearby radio navigation aids

VOR radial/distance  VOR name  Freq  Var
UINr308/24.9QUINCY VORTAC113.6005E

 
NDB name  Hdg/Dist  Freq  Var  ID
KEOKUK207/23.036602EEOK . --- -.-

Airport Services

Fuel available: 100LL
Parking: tiedowns

Runway Information

Runway 18/36

Dimensions: 3500 x 60 ft. / 1067 x 18 m
Surface: concrete, in good condition
Weight bearing capacity: 
Single wheel: 30.0
Runway edge lights: medium intensity
RUNWAY 18  RUNWAY 36
Latitude: 40-08.038667N40-07.462500N
Longitude: 091-40.687000W091-40.705333W
Elevation: 664.6 ft.674.9 ft.
Traffic pattern: leftleft
Runway heading: 180 magnetic, 181 true000 magnetic, 001 true
Markings: nonprecision, in good conditionnonprecision, in good condition
Visual slope indicator: 2-light PAPI on left (3.00 degrees glide path)2-light PAPI on left (3.00 degrees glide path)
Runway end identifier lights: nono
Touchdown point: yes, no lightsyes, no lights

Airport Ownership and Management from official FAA records

Ownership: Publicly-owned
Owner: LEWIS COUNTY AIRPORT AUTHORITY
PO BOX 85
CANTON, MO 63435
Phone (660) 216-4801
Manager: JESSE ROGERS
P.O. BOX 135
CANTON, MO 63435
Phone (660) 216-4801
ALTERNATE PHONE NMBRS 660-216-4801, 660-341-0509.

Airport Operational Statistics

Aircraft based on the field: 7
Single engine airplanes: 6
Ultralights: 1
    
Aircraft operations: avg 34/week *
71% local general aviation
28% transient general aviation
<1% military
* for 12-month period ending 31 December 2017

Additional Remarks

ULTRALIGHT ACTIVITY ON & INVOF ARPT.

Instrument Procedures

NOTE: All procedures below are presented as PDF files. If you need a reader for these files, you should download the free Adobe Reader.

NOT FOR NAVIGATION. Please procure official charts for flight.
FAA instrument procedures published for use from 31 January 2019 at 0901Z to 28 February 2019 at 0900Z.

 
IAPs - Instrument Approach Procedures
RNAV (GPS) RWY 18   download (183KB)
RNAV (GPS) RWY 36   download (190KB)
VOR/DME-A   download (155KB)
NOTE: Special Take-Off Minimums/Departure Procedures apply   download (158KB)

Other nearby airports with instrument procedures:

KEOK - Keokuk Municipal Airport (23 nm NE)
KUIN - Quincy Regional Airport-Baldwin Field (25 nm SE)
KHAE - Hannibal Regional Airport (27 nm SE)
K52 - Cpt Ben Smith Airfield - Monroe City (30 nm S)
03D - Memphis Memorial Airport (32 nm NW)
 
Loc | Ops | Rwys | IFR | FBO | Links
Com | Nav | Svcs | Stats | Notes

Kansas City Aviation Department
 
Area around 6M6 (Lewis County Regional Airport)
 
Road maps at: MapQuest Bing Google
 
Aerial photo
No photo
 
Sectional chart

 
Airport distance calculator
Flying to Lewis County Regional Airport? Find the distance to fly.

From to 6M6

Sunrise and sunset
Times for 15-Feb-2019
 Local
(UTC-6)
 Zulu
(UTC)
Morning civil twilight06:3312:33
Sunrise07:0113:01
Sunset17:4123:41
Evening civil twilight18:0900:09

Current date and time
Zulu (UTC)  15-Feb-2019 22:24:42
Local (UTC-6)  15-Feb-2019 16:24:42
 
METAR
KEOK 
24nm NE 
152155Z AUTO 31006KT 10SM FEW110 M09/M13 A3003 RMK AO2
KUIN 
24nm SE 
152154Z AUTO 35008KT 10SM OVC080 M07/M14 A3001 RMK AO2 SLP174 T10721139
KHAE 
27nm SE 
152155Z AUTO 35007KT 10SM SCT050 OVC065 M06/M15 A3001 RMK AO2
KFSW 
36nm NE 
152055Z AUTO 35008KT 10SM SCT110 M09/M14 A3003 RMK AO2
KIRK 
40nm W 
152155Z AUTO 36010KT 10SM BKN065 OVC085 M08/M14 A3003 RMK AO2 SLP189 T10781139
KI63 
41nm E 
152155Z AUTO 33009KT 10SM OVC080 M08/M13 A2999 RMK AO2 T10811133
KBRL 
46nm NE 
152153Z AUTO 35010KT 10SM CLR M10/M15 A3002 RMK AO2 SLP181 T11001150
TAF
KUIN 
24nm SE 
151732Z 1518/1618 34009KT P6SM VCSH OVC080 FM160100 35008KT P6SM OVC090 FM160900 01006KT P6SM SCT200 FM161400 05006KT P6SM FEW200
NOTAMs
Click for the latest NOTAMs
NOTAMs are issued by the DoD/FAA and will open in a separate window not controlled by AirNav.

 

 
 

FBO, Fuel Providers, and Aircraft Ground Support

  
 Business Name 
 
 Contact 
 
 Services / Description 
 
Fuel Prices
 
Comments
  
Lewis County Airport Authority no information available

If you are affiliated with Lewis County Airport Authority and would like to show here your services, contact info, web link, logo, and more, click here
100LL
AS $4.50 
 Updated 30-May-2018
 
   write
AS=Assisted/Self Service
Update Fuel Prices
 

Would you like to see your business listed on this page?

 If your business provides an interesting product or service to pilots, flight crews, aircraft, or users of the Lewis County Regional Airport, you should consider listing it here.  To start the listing process, click on the button below
 
Add a business
 

Other Pages about Lewis County Regional Airport

Update a link
 
Copyright © AirNav, LLC. All rights reserved. Privacy Policy  Contact